Terug naar catalogus

COSMOS 894 DEB

ActiefPO
NORAD 45506·DEBRIS·🇷🇺 Russia

Gelanceerd Feb 21, 1977 vanaf Plesetsk Cosmodrome

Loading…

Volgende Passages (komende 24 uur)

TLE

VersSource: Space-Track

Epoch: Sep 14, 2026, 07:17 UTC

1 45506U 77013C   26257.30377561  .00000565  00000-0  53169-3 0  9995
2 45506  82.9447  17.7105 0026465 270.9703  88.8424 13.79638866625293

Volg COSMOS 894 DEB in realtime met AllMySat

Download on the App Store